| time (UTC) | temp F | wind direction | speed knots | gust knots | rain 1hr in | rain 24hr in | rain mn in | humidity % | barometer mb |
| 20260904122227 | 66 | 129 | 1.7 | 3.5 | 0.00 | 0.01 | 0.01 | 91 | 1019.9 |
| 20260904121726 | 66 | 185 | 1.7 | 5.2 | 0.00 | 0.01 | 0.01 | 91 | 1019.8 |
| 20260904121238 | 66 | 125 | 1.7 | 6.1 | 0.00 | 0.01 | 0.01 | 91 | 1019.8 |
| 20260904120724 | 66 | 157 | 1.7 | 6.1 | 0.00 | 0.01 | 0.01 | 91 | 1019.9 |
| 20260904120224 | 66 | 165 | 1.7 | 6.1 | 0.00 | 0.01 | 0.01 | 91 | 1019.9 |
| 20260904115942 | 67 | 140 | 1.7 | 6.1 | 0.00 | 0.01 | 0.01 | 91 | 1019.9 |
| 20260904115216 | 67 | 127 | 1.7 | 6.1 | 0.00 | 0.01 | 0.01 | 90 | 1020.0 |
| 20260904114715 | 67 | 125 | 1.7 | 6.1 | 0.00 | 0.01 | 0.01 | 90 | 1019.9 |
| 20260904114213 | 67 | 137 | 1.7 | 4.3 | 0.00 | 0.01 | 0.01 | 90 | 1019.9 |
| 20260904113712 | 67 | 124 | 1.7 | 4.3 | 0.00 | 0.01 | 0.01 | 90 | 1020.0 |
| 20260904113214 | 67 | 117 | 1.7 | 5.2 | 0.00 | 0.01 | 0.01 | 90 | 1020.0 |
| 20260904112911 | 67 | 126 | 1.7 | 4.3 | 0.00 | 0.01 | 0.01 | 90 | 1019.9 |
| 20260904112124 | 67 | 127 | 1.7 | 3.5 | 0.00 | 0.01 | 0.01 | 90 | 1019.9 |
| 20260904111555 | 67 | 117 | 1.7 | 4.3 | 0.00 | 0.01 | 0.01 | 90 | 1019.9 |
| 20260904111031 | 67 | 115 | 1.7 | 4.3 | 0.00 | 0.01 | 0.01 | 90 | 1019.9 |
| 20260904110901 | 68 | 116 | 1.7 | 4.3 | 0.00 | 0.01 | 0.01 | 89 | 1019.8 |
| 20260904110524 | 67 | 142 | 1.7 | 4.3 | 0.00 | 0.01 | 0.01 | 89 | 1019.9 |
| 20260904105410 | 68 | 114 | 1.7 | 4.3 | 0.00 | 0.01 | 0.01 | 89 | 1019.7 |
| 20260904104847 | 68 | 116 | 0.9 | 2.6 | 0.00 | 0.01 | 0.01 | 89 | 1019.7 |
| 20260904104320 | 68 | 116 | 0.9 | 2.6 | 0.00 | 0.01 | 0.01 | 89 | 1019.7 |
| 20260904103753 | 68 | 116 | 1.7 | 4.3 | 0.00 | 0.01 | 0.01 | 89 | 1019.7 |
| 20260904103443 | 68 | 116 | 1.7 | 4.3 | 0.00 | 0.01 | 0.01 | 88 | 1019.6 |
| 20260904102657 | 69 | 114 | 1.7 | 4.3 | 0.00 | 0.01 | 0.01 | 88 | 1019.6 |
| 20260904102353 | 69 | 121 | 1.7 | 5.2 | 0.00 | 0.01 | 0.01 | 88 | 1019.6 |
| 20260904101608 | 69 | 112 | 1.7 | 5.2 | 0.00 | 0.01 | 0.01 | 88 | 1019.5 |
| 20260904101327 | 69 | 114 | 1.7 | 4.3 | 0.00 | 0.01 | 0.01 | 88 | 1019.5 |
| 20260904100606 | 69 | 116 | 1.7 | 4.3 | 0.00 | 0.01 | 0.01 | 87 | 1019.4 |
| 20260904100111 | 69 | 125 | 0.9 | 2.6 | 0.00 | 0.01 | 0.01 | 87 | 1019.3 |
| 20260904095603 | 70 | 125 | 0.9 | 2.6 | 0.00 | 0.01 | 0.01 | 87 | 1019.4 |
| 20260904095102 | 70 | 129 | 0.9 | 2.6 | 0.00 | 0.01 | 0.01 | 87 | 1019.3 |
| 20260904094558 | 70 | 129 | 0.9 | 2.6 | 0.00 | 0.01 | 0.01 | 87 | 1019.3 |
| 20260904094058 | 70 | 112 | 0.0 | 2.6 | 0.00 | 0.01 | 0.01 | 87 | 1019.2 |
| 20260904093559 | 70 | 112 | 0.9 | 2.6 | 0.00 | 0.01 | 0.01 | 86 | 1019.2 |
| 20260904093057 | 70 | 112 | 0.9 | 2.6 | 0.00 | 0.01 | 0.01 | 86 | 1019.2 |
| 20260904092555 | 70 | 112 | 0.9 | 2.6 | 0.00 | 0.01 | 0.01 | 86 | 1019.1 |
| 20260904092317 | 71 | 112 | 0.9 | 2.6 | 0.00 | 0.01 | 0.01 | 86 | 1019.1 |
| 20260904091814 | 71 | 112 | 0.9 | 1.7 | 0.00 | 0.01 | 0.01 | 86 | 1019.1 |
| 20260904091051 | 71 | 112 | 0.0 | 1.7 | 0.00 | 0.01 | 0.01 | 86 | 1018.9 |
| 20260904090817 | 71 | 112 | 0.0 | 1.7 | 0.00 | 0.01 | 0.01 | 85 | 1018.9 |
| 20260904090104 | 71 | 112 | 0.0 | 0.9 | 0.00 | 0.01 | 0.01 | 85 | 1018.9 |
| 20260904085546 | 71 | 112 | 0.0 | 2.6 | 0.00 | 0.01 | 0.01 | 85 | 1018.8 |
| 20260904085306 | 71 | 112 | 0.9 | 2.6 | 0.00 | 0.01 | 0.01 | 85 | 1018.7 |
| 20260904084542 | 71 | 112 | 0.9 | 2.6 | 0.00 | 0.01 | 0.01 | 85 | 1018.7 |
| 20260904084303 | 71 | 112 | 0.9 | 2.6 | 0.00 | 0.01 | 0.01 | 85 | 1018.7 |
| 20260904083515 | 71 | 112 | 0.9 | 2.6 | 0.00 | 0.01 | 0.01 | 85 | 1018.7 |
| 20260904083015 | 72 | 114 | 0.9 | 3.5 | 0.00 | 0.01 | 0.01 | 85 | 1018.6 |
| 20260904082510 | 72 | 114 | 0.9 | 3.5 | 0.00 | 0.01 | 0.01 | 84 | 1018.7 |
| 20260904082008 | 72 | 109 | 0.9 | 3.5 | 0.00 | 0.01 | 0.01 | 84 | 1018.5 |
| 20260904081519 | 72 | 116 | 0.9 | 4.3 | 0.00 | 0.01 | 0.01 | 83 | 1018.5 |
| 20260904081006 | 72 | 116 | 0.9 | 4.3 | 0.00 | 0.01 | 0.01 | 83 | 1018.5 |
| 20260904080730 | 72 | 116 | 0.9 | 4.3 | 0.00 | 0.01 | 0.01 | 83 | 1018.4 |
| 20260904080008 | 72 | 116 | 0.9 | 4.3 | 0.00 | 0.01 | 0.01 | 82 | 1018.3 |
| 20260904075507 | 73 | 115 | 0.9 | 6.1 | 0.00 | 0.01 | 0.01 | 82 | 1018.2 |
| 20260904075005 | 73 | 143 | 1.7 | 6.1 | 0.00 | 0.01 | 0.01 | 81 | 1018.2 |
| 20260904074727 | 73 | 124 | 1.7 | 6.1 | 0.00 | 0.01 | 0.01 | 81 | 1018.0 |
| 20260904073957 | 73 | 120 | 1.7 | 6.1 | 0.00 | 0.01 | 0.01 | 80 | 1017.9 |
| 20260904073728 | 73 | 115 | 1.7 | 6.1 | 0.00 | 0.01 | 0.01 | 79 | 1017.9 |
| 20260904072953 | 74 | 132 | 2.6 | 6.1 | 0.00 | 0.01 | 0.01 | 79 | 1017.9 |
| 20260904072449 | 74 | 122 | 2.6 | 6.1 | 0.00 | 0.01 | 0.01 | 78 | 1017.8 |
| 20260904071947 | 74 | 116 | 2.6 | 7.0 | 0.00 | 0.01 | 0.01 | 77 | 1017.8 |
| 20260904071449 | 75 | 123 | 2.6 | 7.8 | 0.00 | 0.01 | 0.01 | 76 | 1017.8 |
| 20260904070945 | 75 | 131 | 1.7 | 7.8 | 0.00 | 0.01 | 0.01 | 75 | 1017.8 |
| 20260904070445 | 75 | 125 | 1.7 | 6.1 | 0.00 | 0.01 | 0.01 | 74 | 1017.7 |
| 20260904065945 | 75 | 104 | 1.7 | 6.1 | 0.00 | 0.01 | 0.01 | 73 | 1017.7 |
| 20260904065443 | 76 | 122 | 1.7 | 6.1 | 0.00 | 0.01 | 0.01 | 72 | 1017.5 |
| 20260904065210 | 76 | 114 | 2.6 | 6.1 | 0.00 | 0.01 | 0.01 | 72 | 1017.5 |
| 20260904064457 | 76 | 114 | 1.7 | 6.1 | 0.00 | 0.01 | 0.01 | 71 | 1017.5 |
| 20260904063938 | 76 | 114 | 1.7 | 11.3 | 0.00 | 0.01 | 0.01 | 70 | 1017.5 |
| 20260904063435 | 77 | 94 | 2.6 | 11.3 | 0.00 | 0.01 | 0.01 | 68 | 1017.4 |
| 20260904063417 | 77 | 128 | 2.6 | 11.3 | 0.00 | 0.01 | 0.01 | 67 | 1017.4 |
| 20260904062431 | 78 | 114 | 1.7 | 11.3 | 0.00 | 0.01 | 0.01 | 65 | 1017.3 |
| 20260904061931 | 78 | 116 | 1.7 | 4.3 | 0.00 | 0.01 | 0.01 | 65 | 1017.3 |
| 20260904061431 | 79 | 67 | 1.7 | 5.2 | 0.00 | 0.01 | 0.01 | 64 | 1017.2 |
| 20260904060933 | 79 | 118 | 2.6 | 7.0 | 0.00 | 0.01 | 0.01 | 62 | 1017.1 |
| 20260904060417 | 80 | 110 | 1.7 | 7.8 | 0.00 | 0.01 | 0.01 | 62 | 1017.0 |
| 20260904055915 | 80 | 111 | 1.7 | 7.8 | 0.00 | 0.01 | 0.01 | 61 | 1017.0 |
| 20260904055409 | 80 | 112 | 2.6 | 10.4 | 0.00 | 0.01 | 0.01 | 60 | 1017.0 |
| 20260904055131 | 81 | 107 | 2.6 | 10.4 | 0.00 | 0.01 | 0.01 | 58 | 1017.0 |
| 20260904054405 | 81 | 139 | 2.6 | 9.6 | 0.00 | 0.01 | 0.01 | 57 | 1017.0 |
| 20260904054124 | 82 | 120 | 2.6 | 9.6 | 0.00 | 0.01 | 0.01 | 57 | 1017.0 |
| 20260904053632 | 82 | 114 | 3.5 | 9.6 | 0.00 | 0.01 | 0.01 | 54 | 1016.9 |
| 20260904052903 | 83 | 110 | 3.5 | 8.7 | 0.00 | 0.01 | 0.01 | 54 | 1016.9 |
| 20260904052623 | 83 | 124 | 2.6 | 8.7 | 0.00 | 0.01 | 0.01 | 54 | 1016.8 |
| 20260904051900 | 84 | 131 | 2.6 | 8.7 | 0.00 | 0.01 | 0.01 | 53 | 1016.9 |
| 20260904051401 | 84 | 122 | 2.6 | 7.8 | 0.00 | 0.01 | 0.01 | 52 | 1016.8 |
| 20260904050903 | 84 | 92 | 2.6 | 9.6 | 0.00 | 0.01 | 0.01 | 49 | 1016.8 |
| 20260904050341 | 85 | 124 | 2.6 | 9.6 | 0.00 | 0.01 | 0.01 | 46 | 1016.8 |
| 20260904050106 | 85 | 109 | 1.7 | 7.8 | 0.00 | 0.01 | 0.01 | 46 | 1016.7 |
| 20260904045327 | 85 | 114 | 1.7 | 7.8 | 0.00 | 0.01 | 0.01 | 46 | 1016.8 |
| 20260904045042 | 85 | 126 | 3.5 | 9.6 | 0.00 | 0.01 | 0.01 | 46 | 1016.8 |
| 20260904044318 | 86 | 118 | 2.6 | 9.6 | 0.00 | 0.01 | 0.01 | 45 | 1016.8 |
| 20260904043820 | 86 | 129 | 2.6 | 9.6 | 0.00 | 0.01 | 0.01 | 43 | 1016.8 |
| 20260904043319 | 86 | 66 | 2.6 | 9.6 | 0.00 | 0.01 | 0.01 | 41 | 1016.9 |
| 20260904042816 | 87 | 121 | 1.7 | 7.0 | 0.00 | 0.01 | 0.01 | 40 | 1016.8 |
| 20260904042316 | 87 | 110 | 1.7 | 7.0 | 0.00 | 0.01 | 0.01 | 39 | 1016.8 |
| 20260904041818 | 88 | 89 | 1.7 | 7.0 | 0.00 | 0.01 | 0.01 | 38 | 1016.9 |
| 20260904041315 | 88 | 46 | 1.7 | 7.0 | 0.00 | 0.01 | 0.01 | 37 | 1017.0 |
| 20260904040814 | 88 | 102 | 1.7 | 7.0 | 0.00 | 0.01 | 0.01 | 37 | 1017.1 |
| 20260904040313 | 89 | 80 | 1.7 | 9.6 | 0.00 | 0.01 | 0.01 | 38 | 1017.0 |
| 20260904040039 | 89 | 116 | 1.7 | 9.6 | 0.00 | 0.01 | 0.01 | 37 | 1017.0 |
| 20260904035803 | 89 | 116 | 1.7 | 6.1 | 0.00 | 0.01 | 0.01 | 37 | 1017.0 |
| 20260904035024 | 89 | 126 | 1.7 | 7.8 | 0.00 | 0.01 | 0.01 | 37 | 1017.1 |
| 20260904034307 | 89 | 61 | 0.9 | 7.8 | 0.00 | 0.01 | 0.01 | 37 | 1017.2 |
| 20260904033759 | 90 | 79 | 1.7 | 7.8 | 0.00 | 0.01 | 0.01 | 37 | 1017.1 |
| 20260904033257 | 90 | 53 | 2.6 | 7.8 | 0.00 | 0.01 | 0.01 | 36 | 1017.1 |
| 20260904032754 | 91 | 60 | 2.6 | 6.1 | 0.00 | 0.01 | 0.01 | 38 | 1017.2 |
| 20260904032252 | 91 | 49 | 2.6 | 6.1 | 0.00 | 0.01 | 0.01 | 38 | 1017.2 |
| 20260904031750 | 92 | 45 | 1.7 | 6.1 | 0.00 | 0.01 | 0.01 | 34 | 1017.2 |
| 20260904031514 | 92 | 324 | 0.9 | 6.1 | 0.00 | 0.01 | 0.01 | 29 | 1017.3 |
| 20260904031332 | 92 | 324 | 0.9 | 6.1 | 0.00 | 0.01 | 0.01 | 29 | 1017.3 |
| 20260904030747 | 92 | 195 | 0.9 | 6.1 | 0.00 | 0.01 | 0.01 | 29 | 1017.4 |
| 20260904030245 | 92 | 243 | 0.9 | 3.5 | 0.00 | 0.01 | 0.01 | 29 | 1017.5 |
| 20260904030001 | 92 | 254 | 1.7 | 4.3 | 0.00 | 0.01 | 0.01 | 28 | 1017.5 |
| 20260904025236 | 91 | 313 | 1.7 | 6.1 | 0.00 | 0.01 | 0.01 | 31 | 1017.6 |
| 20260904024735 | 91 | 106 | 0.9 | 6.1 | 0.00 | 0.01 | 0.01 | 28 | 1017.6 |
| 20260904024236 | 91 | 206 | 2.6 | 7.8 | 0.00 | 0.01 | 0.01 | 30 | 1017.7 |
| 20260904023710 | 91 | 278 | 2.6 | 7.8 | 0.00 | 0.01 | 0.01 | 32 | 1017.8 |
| 20260904023212 | 91 | 310 | 1.7 | 4.3 | 0.00 | 0.01 | 0.01 | 32 | 1017.9 |
| 20260904022710 | 90 | 14 | 0.9 | 4.3 | 0.00 | 0.01 | 0.01 | 32 | 1018.0 |
| 20260904022428 | 90 | 82 | 1.7 | 6.1 | 0.00 | 0.01 | 0.01 | 33 | 1018.0 |
| 20260904021704 | 90 | 120 | 0.9 | 6.1 | 0.00 | 0.01 | 0.01 | 32 | 1018.1 |
| 20260904021202 | 89 | 118 | 1.7 | 7.0 | 0.00 | 0.01 | 0.01 | 34 | 1018.2 |
| 20260904020700 | 89 | 185 | 1.7 | 7.0 | 0.00 | 0.01 | 0.01 | 33 | 1018.3 |
| 20260904020201 | 89 | 233 | 1.7 | 4.3 | 0.00 | 0.01 | 0.01 | 34 | 1018.4 |
| 20260904015659 | 89 | 199 | 1.7 | 4.3 | 0.00 | 0.01 | 0.01 | 33 | 1018.6 |
| 20260904015159 | 89 | 324 | 0.9 | 4.3 | 0.00 | 0.01 | 0.01 | 33 | 1018.7 |
| 20260904014656 | 88 | 234 | 1.7 | 7.0 | 0.00 | 0.01 | 0.01 | 34 | 1018.8 |
| 20260904014155 | 88 | 260 | 1.7 | 7.0 | 0.00 | 0.01 | 0.01 | 36 | 1018.9 |
| 20260904013656 | 88 | 180 | 1.7 | 4.3 | 0.00 | 0.01 | 0.01 | 37 | 1019.0 |
| 20260904013130 | 88 | 233 | 1.7 | 4.3 | 0.00 | 0.01 | 0.01 | 37 | 1019.1 |
| 20260904012605 | 87 | 215 | 1.7 | 3.5 | 0.00 | 0.01 | 0.01 | 38 | 1019.2 |
| 20260904012051 | 87 | 223 | 1.7 | 4.3 | 0.00 | 0.01 | 0.01 | 38 | 1019.3 |
| 20260904011514 | 87 | 114 | 0.9 | 6.1 | 0.00 | 0.01 | 0.01 | 37 | 1019.4 |
| 20260904011227 | 87 | 243 | 1.7 | 6.1 | 0.00 | 0.01 | 0.01 | 38 | 1019.6 |
| 20260904010420 | 87 | 311 | 1.7 | 4.3 | 0.00 | 0.01 | 0.01 | 40 | 1019.7 |
| 20260904005853 | 86 | 223 | 1.7 | 4.3 | 0.00 | 0.01 | 0.01 | 43 | 1019.8 |
| 20260904005327 | 86 | 251 | 1.7 | 4.3 | 0.00 | 0.01 | 0.01 | 41 | 1019.8 |
| 20260904004802 | 85 | 264 | 0.9 | 3.5 | 0.00 | 0.01 | 0.01 | 42 | 1020.0 |
| 20260904004237 | 85 | 254 | 0.9 | 2.6 | 0.00 | 0.01 | 0.01 | 43 | 1020.0 |
| 20260904003711 | 84 | 251 | 0.9 | 4.3 | 0.00 | 0.01 | 0.01 | 45 | 1020.1 |
| 20260904003145 | 83 | 245 | 1.7 | 5.2 | 0.00 | 0.01 | 0.01 | 45 | 1020.2 |
| 20260904002623 | 83 | 240 | 2.6 | 7.8 | 0.00 | 0.01 | 0.01 | 46 | 1020.2 |
| 20260904002059 | 83 | 202 | 1.7 | 9.6 | 0.00 | 0.01 | 0.01 | 45 | 1020.3 |
| 20260904001540 | 82 | 264 | 1.7 | 9.6 | 0.00 | 0.01 | 0.01 | 46 | 1020.3 |
| 20260904001040 | 82 | 262 | 2.6 | 9.6 | 0.00 | 0.01 | 0.01 | 47 | 1020.4 |
| 20260904000809 | 81 | 264 | 2.6 | 9.6 | 0.00 | 0.01 | 0.01 | 47 | 1020.4 |
| 20260904000311 | 81 | 218 | 2.6 | 6.1 | 0.00 | 0.01 | 0.01 | 48 | 1020.4 |
| 20260903235537 | 81 | 233 | 1.7 | 6.1 | 0.00 | 0.01 | 0.01 | 48 | 1020.4 |
| 20260903235256 | 80 | 235 | 1.7 | 7.8 | 0.00 | 0.01 | 0.01 | 49 | 1020.4 |
| 20260903234536 | 80 | 246 | 2.6 | 7.8 | 0.00 | 0.01 | 0.01 | 50 | 1020.5 |
| 20260903234033 | 79 | 258 | 1.7 | 7.0 | 0.00 | 0.01 | 0.01 | 51 | 1020.4 |
| 20260903233534 | 79 | 245 | 1.7 | 7.0 | 0.00 | 0.01 | 0.01 | 52 | 1020.4 |
| 20260903233033 | 78 | 247 | 2.6 | 7.0 | 0.00 | 0.01 | 0.01 | 54 | 1020.5 |
| 20260903232532 | 77 | 249 | 2.6 | 8.7 | 0.00 | 0.01 | 0.01 | 55 | 1020.5 |
| 20260903232032 | 77 | 249 | 2.6 | 8.7 | 0.00 | 0.01 | 0.01 | 56 | 1020.5 |
| 20260903231539 | 76 | 216 | 2.6 | 7.8 | 0.00 | 0.01 | 0.01 | 59 | 1020.6 |
| 20260903231026 | 76 | 281 | 1.7 | 4.3 | 0.00 | 0.01 | 0.01 | 61 | 1020.6 |
| 20260903230524 | 75 | 262 | 1.7 | 3.5 | 0.00 | 0.01 | 0.01 | 63 | 1020.6 |
| 20260903230027 | 74 | 222 | 1.7 | 4.3 | 0.00 | 0.01 | 0.01 | 64 | 1020.6 |
| 20260903225512 | 74 | 214 | 2.6 | 8.7 | 0.00 | 0.01 | 0.01 | 65 | 1020.6 |
| 20260903225457 | 73 | 206 | 2.6 | 8.7 | 0.00 | 0.01 | 0.01 | 66 | 1020.7 |
| 20260903224955 | 73 | 231 | 1.7 | 7.0 | 0.00 | 0.01 | 0.01 | 66 | 1020.6 |
| 20260903224009 | 72 | 214 | 2.6 | 7.8 | 0.00 | 0.01 | 0.01 | 68 | 1020.6 |
| 20260903223728 | 71 | 231 | 2.6 | 7.8 | 0.00 | 0.01 | 0.01 | 69 | 1020.6 |
| 20260903223008 | 71 | 235 | 2.6 | 7.8 | 0.00 | 0.01 | 0.01 | 71 | 1020.6 |
| 20260903222728 | 70 | 214 | 2.6 | 7.8 | 0.00 | 0.01 | 0.01 | 72 | 1020.6 |
| 20260903222008 | 69 | 175 | 2.6 | 8.7 | 0.00 | 0.01 | 0.01 | 75 | 1020.6 |
| 20260903221513 | 68 | 213 | 2.6 | 8.7 | 0.00 | 0.01 | 0.01 | 78 | 1020.6 |
| 20260903221006 | 67 | 208 | 1.7 | 6.1 | 0.00 | 0.01 | 0.01 | 82 | 1020.5 |
| 20260903220509 | 66 | 249 | 1.7 | 5.2 | 0.00 | 0.01 | 0.01 | 84 | 1020.5 |
| 20260903220000 | 65 | 251 | 1.7 | 5.2 | 0.00 | 0.01 | 0.01 | 88 | 1020.4 |
| 20260903215500 | 64 | 206 | 0.9 | 4.3 | 0.00 | 0.01 | 0.01 | 90 | 1020.4 |
| 20260903214958 | 63 | 195 | 0.9 | 4.3 | 0.00 | 0.01 | 0.01 | 91 | 1020.3 |
| 20260903214501 | 62 | 199 | 0.9 | 3.5 | 0.00 | 0.01 | 0.01 | 93 | 1020.3 |
| 20260903213931 | 61 | 219 | 1.7 | 3.5 | 0.00 | 0.01 | 0.01 | 93 | 1020.3 |
| 20260903213412 | 61 | 185 | 1.7 | 7.0 | 0.00 | 0.01 | 0.01 | 93 | 1020.2 |
| 20260903213135 | 60 | 246 | 1.7 | 7.0 | 0.00 | 0.01 | 0.01 | 94 | 1020.1 |
| 20260903212619 | 60 | 211 | 0.9 | 5.2 | 0.00 | 0.01 | 0.01 | 94 | 1020.0 |
| 20260903212124 | 59 | 225 | 0.9 | 5.2 | 0.00 | 0.01 | 0.01 | 94 | 1019.9 |
| 20260903211626 | 59 | 234 | 0.9 | 3.5 | 0.00 | 0.01 | 0.01 | 94 | 1019.8 |
| 20260903210856 | 58 | 224 | 0.0 | 2.6 | 0.00 | 0.01 | 0.01 | 93 | 1019.8 |
| 20260903210355 | 58 | 224 | 0.0 | 2.6 | 0.00 | 0.01 | 0.01 | 93 | 1019.7 |
| 20260903205851 | 57 | 189 | 0.0 | 1.7 | 0.00 | 0.01 | 0.01 | 93 | 1019.6 |
| 20260903205351 | 57 | 189 | 0.0 | 0.9 | 0.00 | 0.01 | 0.01 | 93 | 1019.6 |
| 20260903204852 | 56 | 189 | 0.0 | 0.9 | 0.00 | 0.01 | 0.01 | 92 | 1019.4 |
| 20260903204346 | 56 | 189 | 0.0 | 0.0 | 0.00 | 0.01 | 0.01 | 92 | 1019.4 |
| 20260903204103 | 56 | 189 | 0.0 | 0.0 | 0.00 | 0.01 | 0.01 | 92 | 1019.4 |
| 20260903203342 | 56 | 189 | 0.0 | 0.0 | 0.00 | 0.01 | 0.01 | 91 | 1019.4 |
| 20260903203105 | 56 | 189 | 0.0 | 0.0 | 0.00 | 0.01 | 0.01 | 91 | 1019.5 |
| 20260903202333 | 56 | 189 | 0.0 | 0.0 | 0.00 | 0.01 | 0.01 | 91 | 1019.3 |
| 20260903201833 | 56 | 189 | 0.0 | 0.0 | 0.00 | 0.01 | 0.01 | 91 | 1019.3 |
| 20260903201332 | 56 | 189 | 0.0 | 0.0 | 0.00 | 0.01 | 0.01 | 91 | 1019.2 |
| 20260903200831 | 56 | 189 | 0.0 | 0.0 | 0.00 | 0.01 | 0.01 | 91 | 1019.1 |
| 20260903200327 | 56 | 189 | 0.0 | 0.0 | 0.01 | 0.01 | 0.01 | 91 | 1019.0 |
| 20260903195826 | 56 | 189 | 0.0 | 0.0 | 0.01 | 0.01 | 0.01 | 91 | 1018.9 |
| 20260903195325 | 56 | 189 | 0.0 | 0.0 | 0.01 | 0.01 | 0.01 | 91 | 1018.9 |
| 20260903194821 | 56 | 189 | 0.0 | 0.0 | 0.01 | 0.01 | 0.01 | 91 | 1018.8 |
| 20260903194322 | 56 | 189 | 0.0 | 0.0 | 0.01 | 0.01 | 0.01 | 91 | 1018.8 |
| 20260903193820 | 57 | 189 | 0.0 | 0.0 | 0.01 | 0.01 | 0.01 | 91 | 1018.7 |
| 20260903193316 | 57 | 189 | 0.0 | 0.0 | 0.01 | 0.01 | 0.01 | 91 | 1018.7 |
| 20260903193033 | 57 | 189 | 0.0 | 0.0 | 0.01 | 0.01 | 0.01 | 91 | 1018.6 |
| 20260903192308 | 57 | 189 | 0.0 | 0.0 | 0.01 | 0.01 | 0.01 | 91 | 1018.6 |
| 20260903191806 | 57 | 189 | 0.0 | 0.9 | 0.01 | 0.01 | 0.01 | 90 | 1018.6 |
| 20260903191307 | 57 | 189 | 0.0 | 0.9 | 0.01 | 0.01 | 0.01 | 91 | 1018.7 |
| 20260903190749 | 57 | 189 | 0.0 | 0.0 | 0.01 | 0.01 | 0.01 | 91 | 1018.7 |
| 20260903190252 | 57 | 189 | 0.0 | 0.0 | 0.00 | 0.00 | 0.00 | 91 | 1018.6 |
| 20260903185722 | 57 | 189 | 0.0 | 0.0 | 0.00 | 0.00 | 0.00 | 90 | 1018.5 |
| 20260903185210 | 58 | 189 | 0.0 | 0.0 | 0.00 | 0.00 | 0.00 | 90 | 1018.4 |
| 20260903184708 | 58 | 189 | 0.0 | 0.0 | 0.00 | 0.00 | 0.00 | 90 | 1018.3 |
| 20260903184206 | 58 | 189 | 0.0 | 0.0 | 0.00 | 0.00 | 0.00 | 90 | 1018.2 |
| 20260903183925 | 58 | 189 | 0.0 | 0.0 | 0.00 | 0.00 | 0.00 | 90 | 1018.1 |
| 20260903183203 | 58 | 189 | 0.0 | 0.9 | 0.00 | 0.00 | 0.00 | 90 | 1018.1 |
| 20260903182659 | 58 | 189 | 0.0 | 1.7 | 0.00 | 0.00 | 0.00 | 90 | 1018.1 |
| 20260903182159 | 58 | 189 | 0.0 | 1.7 | 0.00 | 0.00 | 0.00 | 90 | 1018.1 |
| 20260903181700 | 58 | 189 | 0.0 | 0.0 | 0.00 | 0.00 | 0.00 | 90 | 1018.0 |
| 20260903181154 | 58 | 189 | 0.0 | 0.0 | 0.00 | 0.00 | 0.00 | 90 | 1018.0 |
| 20260903180910 | 58 | 189 | 0.0 | 0.0 | 0.00 | 0.00 | 0.00 | 89 | 1018.0 |
| 20260903180150 | 59 | 189 | 0.0 | 0.0 | 0.00 | 0.00 | 0.00 | 89 | 1018.0 |
| 20260903175651 | 59 | 189 | 0.0 | 0.0 | 0.00 | 0.00 | 0.00 | 89 | 1017.9 |
| 20260903175128 | 59 | 189 | 0.0 | 0.0 | 0.00 | 0.00 | 0.00 | 89 | 1017.9 |
| 20260903174855 | 59 | 189 | 0.0 | 0.0 | 0.00 | 0.00 | 0.00 | 89 | 1017.9 |
| 20260903174605 | 60 | 189 | 0.0 | 0.9 | 0.00 | 0.00 | 0.00 | 89 | 1018.0 |
| 20260903173621 | 60 | 189 | 0.0 | 1.7 | 0.00 | 0.00 | 0.00 | 89 | 1017.9 |
| 20260903173120 | 60 | 189 | 0.0 | 1.7 | 0.00 | 0.00 | 0.00 | 89 | 1017.9 |
| 20260903172614 | 60 | 189 | 0.0 | 1.7 | 0.00 | 0.00 | 0.00 | 89 | 1017.9 |
| 20260903172113 | 60 | 189 | 0.0 | 1.7 | 0.00 | 0.00 | 0.00 | 89 | 1017.8 |
| 20260903171609 | 60 | 189 | 0.0 | 0.0 | 0.00 | 0.00 | 0.00 | 89 | 1017.8 |
| 20260903171108 | 61 | 189 | 0.0 | 0.0 | 0.00 | 0.00 | 0.00 | 89 | 1017.7 |
| 20260903170832 | 61 | 189 | 0.0 | 1.7 | 0.00 | 0.00 | 0.00 | 89 | 1017.8 |
| 20260903170118 | 61 | 189 | 0.0 | 1.7 | 0.00 | 0.00 | 0.00 | 89 | 1017.7 |
| 20260903165601 | 61 | 189 | 0.0 | 2.6 | 0.00 | 0.00 | 0.00 | 88 | 1017.7 |
| 20260903165100 | 61 | 189 | 0.9 | 2.6 | 0.00 | 0.00 | 0.00 | 88 | 1017.8 |
| 20260903164814 | 62 | 333 | 0.0 | 1.7 | 0.00 | 0.00 | 0.00 | 88 | 1017.9 |
| 20260903164051 | 62 | 333 | 0.0 | 0.0 | 0.00 | 0.00 | 0.00 | 88 | 1017.7 |
| 20260903163549 | 62 | 333 | 0.0 | 0.0 | 0.00 | 0.00 | 0.00 | 88 | 1017.8 |
| 20260903163309 | 62 | 333 | 0.0 | 0.0 | 0.00 | 0.00 | 0.00 | 88 | 1017.8 |
| 20260903162523 | 63 | 333 | 0.0 | 0.0 | 0.00 | 0.00 | 0.00 | 88 | 1017.9 |
| 20260903162024 | 63 | 333 | 0.0 | 0.0 | 0.00 | 0.00 | 0.00 | 88 | 1018.0 |
| 20260903161519 | 63 | 333 | 0.0 | 0.0 | 0.00 | 0.00 | 0.00 | 88 | 1017.9 |
| 20260903161018 | 63 | 333 | 0.0 | 0.9 | 0.00 | 0.00 | 0.00 | 88 | 1018.0 |
| 20260903160512 | 64 | 333 | 0.0 | 0.9 | 0.00 | 0.00 | 0.00 | 88 | 1018.0 |
| 20260903160011 | 64 | 333 | 0.0 | 0.9 | 0.00 | 0.00 | 0.00 | 88 | 1017.9 |
| 20260903155507 | 64 | 333 | 0.0 | 0.9 | 0.00 | 0.00 | 0.00 | 88 | 1017.9 |
| 20260903155006 | 64 | 333 | 0.0 | 0.0 | 0.00 | 0.00 | 0.00 | 88 | 1018.0 |
| 20260903154504 | 65 | 333 | 0.0 | 0.0 | 0.00 | 0.00 | 0.00 | 88 | 1018.0 |
| 20260903154231 | 65 | 333 | 0.0 | 0.0 | 0.00 | 0.00 | 0.00 | 88 | 1018.0 |
| 20260903153501 | 65 | 333 | 0.0 | 0.0 | 0.00 | 0.00 | 0.00 | 88 | 1018.0 |
| 20260903153218 | 65 | 333 | 0.0 | 0.0 | 0.00 | 0.00 | 0.00 | 88 | 1018.0 |
| 20260903152450 | 65 | 333 | 0.0 | 0.0 | 0.00 | 0.00 | 0.00 | 88 | 1018.1 |
| 20260903151948 | 65 | 333 | 0.0 | 0.0 | 0.00 | 0.00 | 0.00 | 88 | 1018.0 |
| 20260903151447 | 65 | 333 | 0.0 | 4.3 | 0.00 | 0.00 | 0.00 | 89 | 1018.0 |
| 20260903150949 | 65 | 333 | 0.0 | 4.3 | 0.00 | 0.00 | 0.00 | 89 | 1018.1 |
| 20260903150435 | 65 | 333 | 0.9 | 4.3 | 0.00 | 0.00 | 0.00 | 89 | 1018.1 |
| 20260903145853 | 65 | 340 | 0.9 | 4.3 | 0.00 | 0.00 | 0.00 | 89 | 1018.1 |
| 20260903145329 | 65 | 339 | 1.7 | 4.3 | 0.00 | 0.00 | 0.00 | 89 | 1018.1 |
| 20260903144829 | 65 | 345 | 1.7 | 4.3 | 0.00 | 0.00 | 0.00 | 89 | 1018.0 |
| 20260903144323 | 65 | 1 | 1.7 | 3.5 | 0.00 | 0.00 | 0.00 | 88 | 1018.1 |
| 20260903144042 | 65 | 0 | 0.9 | 2.6 | 0.00 | 0.00 | 0.00 | 88 | 1018.1 |
| 20260903143318 | 65 | 0 | 0.0 | 1.7 | 0.00 | 0.00 | 0.00 | 88 | 1018.0 |
| 20260903142816 | 66 | 0 | 0.0 | 0.9 | 0.00 | 0.00 | 0.00 | 88 | 1018.1 |
| 20260903142315 | 66 | 0 | 0.0 | 0.0 | 0.00 | 0.00 | 0.00 | 88 | 1018.1 |
| 20260903141813 | 66 | 0 | 0.0 | 0.0 | 0.00 | 0.00 | 0.00 | 87 | 1018.1 |
| 20260903141311 | 66 | 0 | 0.0 | 0.0 | 0.00 | 0.00 | 0.00 | 87 | 1018.1 |
| 20260903140813 | 66 | 0 | 0.0 | 0.9 | 0.00 | 0.00 | 0.00 | 87 | 1018.2 |
| 20260903140311 | 66 | 0 | 0.0 | 1.7 | 0.00 | 0.00 | 0.00 | 87 | 1018.1 |
| 20260903135807 | 66 | 0 | 0.0 | 1.7 | 0.00 | 0.00 | 0.00 | 87 | 1018.0 |
| 20260903135306 | 67 | 0 | 0.0 | 1.7 | 0.00 | 0.00 | 0.00 | 87 | 1018.0 |
| 20260903135242 | 67 | 0 | 0.0 | 2.6 | 0.00 | 0.00 | 0.00 | 87 | 1018.0 |
| 20260903134305 | 67 | 0 | 0.0 | 1.7 | 0.00 | 0.00 | 0.00 | 87 | 1017.9 |
| 20260903133751 | 67 | 0 | 0.0 | 1.7 | 0.00 | 0.00 | 0.00 | 87 | 1017.9 |
| 20260903133515 | 67 | 0 | 0.0 | 1.7 | 0.00 | 0.00 | 0.00 | 87 | 1018.0 |
| 20260903132749 | 67 | 0 | 0.0 | 1.7 | 0.00 | 0.00 | 0.00 | 87 | 1018.0 |
| 20260903132248 | 67 | 0 | 0.9 | 2.6 | 0.00 | 0.00 | 0.00 | 88 | 1017.9 |
| 20260903131745 | 67 | 0 | 1.7 | 5.2 | 0.00 | 0.00 | 0.00 | 88 | 1018.0 |
| 20260903131243 | 67 | 351 | 1.7 | 5.2 | 0.00 | 0.00 | 0.00 | 87 | 1018.1 |
| 20260903131229 | 67 | 8 | 1.7 | 3.5 | 0.00 | 0.00 | 0.00 | 87 | 1018.1 |
| 20260903130240 | 68 | 333 | 1.7 | 6.1 | 0.00 | 0.00 | 0.00 | 88 | 1018.1 |
| 20260903125738 | 68 | 347 | 1.7 | 6.1 | 0.00 | 0.00 | 0.00 | 88 | 1018.1 |
| 20260903125237 | 68 | 9 | 1.7 | 7.0 | 0.00 | 0.00 | 0.00 | 88 | 1018.1 |
| 20260903124735 | 68 | 352 | 2.6 | 7.0 | 0.00 | 0.00 | 0.00 | 88 | 1018.1 |
| 20260903124227 | 68 | 357 | 2.6 | 7.0 | 0.00 | 0.00 | 0.00 | 88 | 1018.0 |
| 20260903124212 | 68 | 355 | 2.6 | 7.8 | 0.00 | 0.00 | 0.00 | 88 | 1018.1 |
| 20260903123225 | 68 | 354 | 2.6 | 7.8 | 0.00 | 0.00 | 0.00 | 88 | 1018.0 |
| 20260903123205 | 68 | 337 | 2.6 | 6.1 | 0.00 | 0.00 | 0.00 | 88 | 1018.1 |